Total_Precipitation_Accumulation
0.00 0.00 0.01 0.01 0.01 0.02 0.02 0.04 0.09 0.15 0.16 0.24 0.37 0.50 0.72 0.88 1.10 1.26 1.29 1.25 1.33 1.55 1.86 2.16 2.53 2.88 3.09 3.25 3.36 3.66 3.86 3.56 3.07 2.64 2.12 1.87 1.78 1.59 1.41 1.27 1.15 1.16 1.09 1.18
0.01 0.02 0.02 0.01 0.01 0.02 0.03 0.06 0.11 0.15 0.15 0.20 0.35 0.64 0.82 0.90 0.92 0.99 1.10 1.06 1.09 1.29 1.39 1.48 1.70 2.03 2.12 2.33 2.65 3.02 3.26 3.10 2.56 2.31 2.06 1.89 1.78 1.66 1.60 1.45 1.32 1.17 1.13 1.15
0.00 0.01 0.01 0.01 0.01 0.02 0.05 0.05 0.06 0.11 0.11 0.20 0.36 0.88 1.00 0.89 0.79 0.69 0.81 0.86 0.83 0.92 1.02 1.02 1.10 1.27 1.57 2.05 2.20 2.25 2.51 2.70 2.44 2.29 2.20 2.08 1.95 1.73 1.75 1.65 1.47 1.17 1.07 1.09
0.01 0.01 0.01 0.01 0.02 0.02 0.04 0.04 0.02 0.03 0.07 0.32 0.44 0.89 1.00 0.88 0.88 0.69 0.65 0.64 0.55 0.53 0.69 0.83 0.85 0.91 1.10 1.43 1.71 1.96 2.20 2.37 2.31 2.18 1.97 1.80 1.60 1.48 1.46 1.48 1.48 1.35 1.23 1.08
0.01 0.01 0.01 0.02 0.02 0.02 0.01 0.01 0.01 0.04 0.10 0.28 0.41 0.74 0.97 0.80 0.94 0.70 0.43 0.32 0.28 0.28 0.38 0.56 0.67 0.76 0.79 0.98 1.37 1.79 2.12 2.35 2.25 1.96 1.78 1.75 1.64 1.58 1.51 1.42 1.56 1.43 1.35 1.16
0.01 0.01 0.01 0.01 0.01 0.01 0.01 0.02 0.08 0.17 0.30 0.62 0.62 0.62 0.90 0.69 0.51 0.36 0.26 0.19 0.20 0.22 0.26 0.36 0.42 0.52 0.66 0.79 1.02 1.30 1.62 1.90 1.94 1.78 1.69 1.71 1.71 1.68 1.54 1.34 1.30 1.22 1.20 1.17
0.06 0.05 0.03 0.02 0.01 0.02 0.02 0.03 0.16 0.38 0.64 0.84 0.49 0.63 0.98 0.56 0.37 0.22 0.18 0.17 0.17 0.16 0.21 0.31 0.37 0.36 0.49 0.57 0.66 0.82 1.12 1.35 1.51 1.59 1.60 1.58 1.68 1.69 1.51 1.35 1.28 1.24 1.08 1.04
0.09 0.15 0.06 0.02 0.01 0.02 0.02 0.02 0.06 0.13 0.25 0.41 0.48 1.09 0.93 0.39 0.24 0.20 0.16 0.17 0.16 0.15 0.16 0.26 0.36 0.36 0.37 0.40 0.51 0.65 0.87 1.06 1.19 1.28 1.39 1.44 1.44 1.35 1.34 1.42 1.32 1.25 1.20 1.14
0.03 0.04 0.03 0.02 0.01 0.02 0.02 0.02 0.03 0.04 0.06 0.25 0.59 0.77 0.49 0.21 0.19 0.21 0.18 0.15 0.15 0.20 0.25 0.28 0.33 0.35 0.28 0.31 0.39 0.46 0.64 0.79 0.90 1.03 1.19 1.22 1.25 1.17 1.17 1.23 1.22 1.17 1.24 1.25
0.02 0.01 0.02 0.02 0.02 0.03 0.03 0.02 0.02 0.02 0.05 0.18 0.43 0.68 0.69 0.39 0.29 0.26 0.22 0.19 0.16 0.24 0.37 0.37 0.30 0.34 0.30 0.29 0.35 0.40 0.50 0.63 0.73 0.86 0.94 0.95 1.13 1.13 1.22 1.20 1.13 1.06 1.04 1.07
0.02 0.01 0.01 0.02 0.02 0.04 0.04 0.03 0.03 0.03 0.04 0.09 0.29 0.44 0.46 0.36 0.33 0.25 0.20 0.22 0.28 0.28 0.40 0.41 0.35 0.32 0.27 0.26 0.29 0.31 0.43 0.54 0.63 0.76 0.82 0.90 0.96 1.01 1.07 1.12 1.11 1.08 1.04 1.03
0.02 0.01 0.01 0.03 0.04 0.03 0.05 0.06 0.06 0.05 0.05 0.06 0.12 0.20 0.22 0.26 0.32 0.27 0.26 0.29 0.29 0.24 0.25 0.32 0.33 0.31 0.23 0.25 0.26 0.26 0.32 0.40 0.49 0.68 0.82 0.85 0.94 0.99 1.00 1.04 1.22 1.22 1.18 1.16
0.02 0.01 0.02 0.06 0.12 0.09 0.06 0.06 0.07 0.07 0.06 0.05 0.10 0.19 0.19 0.21 0.30 0.28 0.30 0.34 0.33 0.26 0.23 0.35 0.42 0.36 0.27 0.26 0.28 0.30 0.35 0.40 0.46 0.59 0.71 0.81 0.89 0.99 1.08 1.19 1.33 1.44 1.41 1.39
0.02 0.01 0.01 0.06 0.14 0.20 0.15 0.08 0.07 0.06 0.05 0.05 0.07 0.14 0.19 0.27 0.31 0.28 0.30 0.35 0.34 0.32 0.24 0.30 0.45 0.42 0.30 0.26 0.31 0.33 0.39 0.46 0.57 0.72 0.82 0.87 1.03 1.18 1.28 1.31 1.44 1.50 1.53 1.56
0.02 0.01 0.01 0.03 0.06 0.11 0.11 0.08 0.07 0.06 0.05 0.05 0.06 0.11 0.20 0.30 0.34 0.33 0.33 0.38 0.39 0.33 0.32 0.42 0.52 0.55 0.48 0.43 0.42 0.45 0.55 0.64 0.79 0.98 1.04 1.05 1.15 1.28 1.45 1.64 1.71 1.73 1.76 1.76
0.04 0.03 0.04 0.04 0.06 0.08 0.07 0.06 0.06 0.06 0.05 0.05 0.07 0.11 0.17 0.27 0.30 0.26 0.27 0.29 0.34 0.38 0.39 0.44 0.59 0.66 0.68 0.67 0.66 0.71 0.81 0.95 1.16 1.40 1.47 1.57 1.65 1.74 1.85 1.92 1.94 2.01 2.03 2.01
0.13 0.12 0.11 0.09 0.09 0.10 0.08 0.07 0.07 0.07 0.07 0.07 0.11 0.16 0.22 0.29 0.31 0.37 0.37 0.36 0.46 0.51 0.54 0.55 0.67 0.74 0.82 0.81 0.79 0.89 0.99 1.18 1.37 1.50 1.56 1.68 1.78 1.86 1.91 1.99 2.04 2.02 2.00 1.94
0.33 0.28 0.20 0.16 0.18 0.19 0.11 0.13 0.14 0.14 0.17 0.19 0.19 0.23 0.29 0.37 0.38 0.42 0.45 0.42 0.45 0.55 0.66 0.66 0.73 0.78 0.80 0.86 0.93 1.01 1.06 1.14 1.38 1.50 1.55 1.57 1.61 1.67 1.78 1.88 1.89 1.83 1.79 1.76
0.41 0.46 0.39 0.28 0.25 0.26 0.25 0.23 0.23 0.27 0.34 0.29 0.32 0.38 0.40 0.41 0.42 0.43 0.48 0.61 0.59 0.56 0.62 0.67 0.76 0.77 0.82 0.85 0.91 0.91 0.98 1.08 1.21 1.29 1.35 1.36 1.46 1.56 1.64 1.69 1.71 1.73 1.69 1.53
0.32 0.35 0.40 0.40 0.40 0.39 0.39 0.42 0.33 0.35 0.59 0.58 0.55 0.53 0.49 0.53 0.63 0.58 0.46 0.49 0.53 0.53 0.56 0.64 0.77 0.79 0.81 0.87 0.89 0.91 0.98 1.10 1.23 1.36 1.46 1.51 1.56 1.64 1.61 1.62 1.64 1.59 1.52 1.43
0.44 0.46 0.44 0.44 0.48 0.50 0.46 0.40 0.39 0.65 0.88 0.86 0.88 0.83 0.68 0.70 0.69 0.60 0.48 0.46 0.49 0.54 0.59 0.63 0.75 0.88 0.88 0.91 0.98 1.06 1.10 1.16 1.25 1.33 1.42 1.45 1.47 1.51 1.51 1.56 1.50 1.49 1.47 1.43
0.60 0.62 0.60 0.63 0.79 0.92 0.69 0.58 0.76 0.91 0.70 0.72 0.85 1.01 1.01 0.91 0.73 0.60 0.50 0.45 0.45 0.44 0.49 0.64 0.74 0.85 0.94 1.04 1.16 1.21 1.17 1.18 1.26 1.38 1.46 1.43 1.43 1.41 1.39 1.36 1.31 1.31 1.31 1.27
0.68 0.76 0.86 0.91 1.05 0.97 0.79 0.78 0.76 0.85 0.96 0.98 1.05 1.17 1.15 1.04 0.82 0.67 0.58 0.53 0.47 0.45 0.48 0.55 0.66 0.81 0.90 1.04 1.17 1.26 1.30 1.37 1.40 1.46 1.53 1.55 1.49 1.44 1.43 1.44 1.42 1.36 1.35 1.33
0.68 0.57 0.78 1.07 1.21 1.04 0.86 0.87 0.88 0.95 1.11 1.14 1.08 1.06 1.00 0.93 0.83 0.79 0.75 0.67 0.65 0.63 0.62 0.68 0.76 0.82 0.89 0.98 1.09 1.20 1.29 1.36 1.48 1.51 1.53 1.56 1.55 1.52 1.47 1.47 1.45 1.41 1.37 1.31
0.72 0.76 0.92 1.24 1.41 1.34 1.20 1.11 1.04 1.06 1.02 1.10 1.03 1.03 0.97 0.87 0.82 0.83 0.88 0.91 0.86 0.82 0.81 0.83 0.88 0.91 0.94 1.00 1.09 1.22 1.31 1.36 1.44 1.52 1.52 1.50 1.46 1.43 1.41 1.38 1.35 1.27 1.22 1.18
0.79 0.93 1.20 1.53 1.53 1.65 1.56 1.28 1.12 1.18 1.14 1.09 1.03 1.05 1.07 0.98 0.89 0.89 0.97 1.01 0.99 0.92 0.88 0.87 0.90 0.91 0.92 0.99 1.10 1.16 1.31 1.46 1.53 1.49 1.37 1.30 1.20 1.17 1.16 1.16 1.18 1.23 1.09 1.07